TimeMST,TemperatureF,Dew PointF,Humidity,Sea Level PressureIn,VisibilityMPH,Wind Direction,Wind SpeedMPH,Gust SpeedMPH,PrecipitationIn,Events,Conditions,WindDirDegrees,DateUTC
12:43 AM,5.0,1.4,85,30.53,2.5,West,3.5,-,N/A,,Partly Cloudy,270,2013-01-17 07:43:00
12:53 AM,5.0,1.9,87,30.72,4.0,Calm,Calm,-,N/A,,Partly Cloudy,0,2013-01-17 07:53:00
1:40 AM,6.8,1.4,79,30.53,1.5,Calm,Calm,-,N/A,,Partly Cloudy,0,2013-01-17 08:40:00
1:42 AM,3.2,1.4,92,30.53,0.8,Calm,Calm,-,N/A,,Mist,0,2013-01-17 08:42:00
1:53 AM,5.0,3.9,95,30.72,0.2,Calm,Calm,-,N/A,Fog,Light Freezing Fog,0,2013-01-17 08:53:00
2:28 AM,6.8,3.2,85,30.53,1.0,Calm,Calm,-,N/A,,Mist,0,2013-01-17 09:28:00
2:30 AM,6.8,3.2,85,30.53,1.5,Calm,Calm,-,N/A,,Overcast,0,2013-01-17 09:30:00
2:32 AM,6.8,3.2,85,30.53,3.0,Calm,Calm,-,N/A,,Overcast,0,2013-01-17 09:32:00
2:43 AM,5.0,1.4,85,30.53,1.2,Calm,Calm,-,N/A,,Mostly Cloudy,0,2013-01-17 09:43:00
2:45 AM,5.0,1.4,85,30.53,0.8,Calm,Calm,-,N/A,,Mist,0,2013-01-17 09:45:00
2:53 AM,3.9,1.9,91,30.73,0.2,Calm,Calm,-,N/A,Fog,Light Freezing Fog,0,2013-01-17 09:53:00
3:53 AM,6.1,3.9,91,30.71,0.2,Calm,Calm,-,N/A,Fog,Light Freezing Fog,0,2013-01-17 10:53:00
4:27 AM,3.2,1.4,92,30.52,1.0,Calm,Calm,-,N/A,,Mist,0,2013-01-17 11:27:00
4:31 AM,5.0,1.4,85,30.52,2.0,Calm,Calm,-,N/A,,Mostly Cloudy,0,2013-01-17 11:31:00
4:41 AM,3.2,-0.4,85,30.52,1.0,Calm,Calm,-,N/A,,Mist,0,2013-01-17 11:41:00
4:47 AM,1.4,-0.4,92,30.52,0.2,SW,3.5,-,N/A,Fog,Light Freezing Fog,230,2013-01-17 11:47:00
4:48 AM,1.0,-0.9,91,30.72,0.2,WSW,3.5,-,N/A,Fog,Light Freezing Fog,240,2013-01-17 11:48:00
5:05 AM,3.2,-0.4,85,30.52,1.0,Calm,Calm,-,N/A,,Mist,0,2013-01-17 12:05:00
5:15 AM,3.2,1.4,92,30.52,0.5,Calm,Calm,-,N/A,Fog,Light Freezing Fog,0,2013-01-17 12:15:00
5:49 AM,6.8,3.2,85,30.52,1.2,NW,4.6,-,N/A,,Overcast,310,2013-01-17 12:49:00
5:53 AM,7.0,3.9,87,30.71,0.5,NW,4.6,-,N/A,Fog,Light Freezing Fog,310,2013-01-17 12:53:00
6:11 AM,8.6,6.8,92,30.52,0.2,Calm,Calm,-,N/A,Fog,Light Freezing Fog,0,2013-01-17 13:11:00
6:53 AM,10.9,9.0,92,30.70,0.2,Calm,Calm,-,N/A,Fog,Light Freezing Fog,0,2013-01-17 13:53:00
7:53 AM,10.9,9.0,92,30.71,0.2,Calm,Calm,-,0.00,Fog,Light Freezing Fog,0,2013-01-17 14:53:00
8:25 AM,10.4,10.4,100,30.52,0.2,South,3.5,-,0.00,Fog-Snow,Light Snow,170,2013-01-17 15:25:00
8:53 AM,10.9,10.0,96,30.72,0.2,SE,4.6,-,0.00,Fog,Light Freezing Fog,140,2013-01-17 15:53:00
9:29 AM,12.2,10.4,92,30.53,0.5,Calm,Calm,-,N/A,Fog,Light Freezing Fog,0,2013-01-17 16:29:00
9:53 AM,12.9,10.9,92,30.72,0.2,Calm,Calm,-,N/A,Fog,Light Freezing Fog,0,2013-01-17 16:53:00
10:19 AM,12.2,12.2,100,30.54,0.2,Calm,Calm,-,N/A,Fog,Light Freezing Fog,0,2013-01-17 17:19:00
10:34 AM,14.0,14.0,100,30.53,0.2,Calm,Calm,-,N/A,Fog,Light Freezing Fog,0,2013-01-17 17:34:00
10:53 AM,14.0,14.0,100,30.71,0.2,Calm,Calm,-,N/A,Fog,Light Freezing Fog,0,2013-01-17 17:53:00
11:07 AM,15.8,15.8,100,30.52,1.0,Calm,Calm,-,0.01,,Overcast,0,2013-01-17 18:07:00
11:27 AM,15.8,15.8,100,30.51,1.0,Calm,Calm,-,0.01,,Overcast,0,2013-01-17 18:27:00
11:30 AM,15.8,15.8,100,30.51,1.5,Calm,Calm,-,0.01,,Overcast,0,2013-01-17 18:30:00
11:35 AM,15.8,15.8,100,30.51,3.0,Calm,Calm,-,0.01,,Overcast,0,2013-01-17 18:35:00
11:37 AM,15.8,15.8,100,30.51,1.8,Calm,Calm,-,0.01,,Overcast,0,2013-01-17 18:37:00
11:39 AM,15.8,15.8,100,30.51,1.0,Calm,Calm,-,0.01,,Overcast,0,2013-01-17 18:39:00
11:46 AM,15.8,15.8,100,30.51,0.2,Calm,Calm,-,0.01,Fog-Snow,Light Snow,0,2013-01-17 18:46:00
11:53 AM,15.1,15.1,100,30.69,0.5,Calm,Calm,-,0.01,Fog-Snow,Light Snow,0,2013-01-17 18:53:00
12:05 PM,15.8,15.8,100,30.49,1.0,Calm,Calm,-,N/A,,Overcast,0,2013-01-17 19:05:00
12:49 PM,15.8,15.8,100,30.47,0.5,Calm,Calm,-,N/A,Fog,Light Freezing Fog,0,2013-01-17 19:49:00
12:53 PM,15.1,15.1,100,30.66,0.5,Calm,Calm,-,N/A,Fog,Light Freezing Fog,0,2013-01-17 19:53:00
1:05 PM,15.8,15.8,100,30.46,0.5,Calm,Calm,-,N/A,Fog,Light Freezing Fog,0,2013-01-17 20:05:00
1:25 PM,15.8,15.8,100,30.44,1.2,Calm,Calm,-,N/A,,Mostly Cloudy,0,2013-01-17 20:25:00
1:28 PM,15.8,15.8,100,30.44,2.0,Calm,Calm,-,N/A,,Mostly Cloudy,0,2013-01-17 20:28:00
1:30 PM,15.8,15.8,100,30.44,0.8,Calm,Calm,-,N/A,Fog,Light Freezing Fog,0,2013-01-17 20:30:00
1:53 PM,16.0,16.0,100,30.61,0.5,Calm,Calm,-,N/A,Fog,Light Freezing Fog,0,2013-01-17 20:53:00
2:26 PM,17.6,15.8,93,30.40,3.0,Calm,Calm,-,N/A,,Scattered Clouds,0,2013-01-17 21:26:00
2:53 PM,16.0,14.0,92,30.59,10.0,Calm,Calm,-,N/A,,Partly Cloudy,0,2013-01-17 21:53:00
3:53 PM,17.1,14.0,88,30.56,10.0,Calm,Calm,-,N/A,,Clear,0,2013-01-17 22:53:00
4:53 PM,17.1,14.0,88,30.56,10.0,Calm,Calm,-,N/A,,Clear,0,2013-01-17 23:53:00
5:53 PM,15.1,12.0,88,30.55,6.0,Calm,Calm,-,N/A,,Clear,0,2013-01-18 00:53:00
6:53 PM,15.1,12.0,88,30.52,8.0,Calm,Calm,-,N/A,,Clear,0,2013-01-18 01:53:00
7:53 PM,14.0,10.9,88,30.51,6.0,Calm,Calm,-,N/A,,Clear,0,2013-01-18 02:53:00
8:34 PM,10.4,6.8,85,30.33,6.0,Calm,Calm,-,N/A,,Scattered Clouds,0,2013-01-18 03:34:00
8:40 PM,10.4,8.6,92,30.33,1.0,Calm,Calm,-,N/A,,Mist,0,2013-01-18 03:40:00
8:48 PM,10.4,8.6,92,30.33,10.0,Calm,Calm,-,N/A,,Scattered Clouds,0,2013-01-18 03:48:00
8:53 PM,10.9,8.1,88,30.51,10.0,Calm,Calm,-,N/A,,Scattered Clouds,0,2013-01-18 03:53:00
9:12 PM,10.4,8.6,92,30.32,1.5,Calm,Calm,-,N/A,,Clear,0,2013-01-18 04:12:00
9:19 PM,10.4,8.6,92,30.32,10.0,Calm,Calm,-,N/A,,Clear,0,2013-01-18 04:19:00
9:31 PM,8.6,6.8,92,30.32,10.0,North,3.5,-,N/A,,Scattered Clouds,10,2013-01-18 04:31:00
9:53 PM,10.0,7.0,87,30.50,10.0,Calm,Calm,-,N/A,,Partly Cloudy,0,2013-01-18 04:53:00
10:53 PM,8.1,5.0,87,30.50,4.0,Calm,Calm,-,N/A,,Clear,0,2013-01-18 05:53:00
11:53 PM,8.1,5.0,87,30.50,6.0,Calm,Calm,-,N/A,,Clear,0,2013-01-18 06:53:00